Location: Herksen
(52.4316°N, 6.1319°E)
Time: 20:41:11
(UTC+00:00)

Cosmos 1763 Rocket - Pass Details

Date: 15 May 2026
Orbit: 728 x 773 km, 74.0° (Epoch: 7 June)

Event Time Altitude Azimuth Distance (km) Brightness Sun altitude
Exits shadow 21:10:51 14° 173° (S) 2,076 5.2 -12.3°
Maximum altitude 21:15:09 43° 106° (ESE) 1,073 3.9 -12.6°
Drops below altitude 10° 21:20:07 10° 36° (NE) 2,320 6.3 -13.0°
Sets 21:22:35 0° 30° (NNE) 3,246 7.2 -13.2°
